{"data":{"norad_id":56386,"epoch":"2026-09-20T03:05:31.607520Z","epoch_age_seconds":144143,"freshness":"FRESH","line1":"1 56386U 23061N   26263.12883805 -.00000325  00000+0 -22957-5 0  9995","line2":"2 56386  43.0003 180.0585 0000950 237.8667 122.2093 15.27575138186480","mean_motion":15.27575138,"eccentricity":9.5e-5,"inclination_deg":43.0003,"raan_deg":180.0585,"arg_perigee_deg":237.8667,"mean_anomaly_deg":122.2093,"bstar":-2.2957e-6,"rev_number":18648,"period_min":94.267048747948,"perigee_km":482.41184059317,"apogee_km":483.71546871756,"semimajor_km":6861.2006546554,"source":"CELESTRAK","updated_at":"2026-09-21T09:00:33.432394Z"}}